Weather History for KSPD - November, 2012

Change the Weather History Date:

Wednesday, November 28, 2012

  Actual Average Record
Temperature  
Mean Temperature 42 °F -  
Max Temperature 62 °F 51 °F 78 °F (2014)
Min Temperature 21 °F 22 °F 8 °F (2001)
Degree Days  
Heating Degree Days 23 29  
Month to date heating degree days 498 642  
Since 1 July heating degree days 945 1087  
Cooling Degree Days 0 0  
Month to date cooling degree days 0 0  
Year to date cooling degree days 1422 1028  
Moisture  
Dew Point 13 °F    
Average Humidity 35    
Maximum Humidity 52    
Minimum Humidity 17    
Precipitation  
Precipitation 0.00 in 0.02 in 0.04 in (2004)
Month to date precipitation 0.00 0.56  
Year to date precipitation 8.07 17.02  
Sea Level Pressure  
Sea Level Pressure 30.13 in    
Wind  
Wind Speed 8 mph (West)    
Max Wind Speed 15 mph    
Max Gust Speed 17 mph    
T = Trace of Precipitation, MM = Missing Value Source: NWS Daily Summary

Daily Weather History Graph

Daily Weather History Graph

Search for Another Location

Airport or City:

Trip Planner

Search our weather history database for the weather conditions in past years. The results will help you decide how hot, cold, wet, or windy it might be!

Date:

Astronomy

Nov. 28, 2012 Rise Set
Actual Time 6:43 AM MST 4:33 PM MST
Civil Twilight 6:14 AM MST 5:02 PM MST
Nautical Twilight 5:42 AM MST 5:34 PM MST
Astronomical Twilight 5:11 AM MST 6:05 PM MST
Moon 4:50 PM MST (11/28) 6:42 AM MST (11/28)
Length of Visible Light 10h 47m
Length of Day
9h 50m
Full, 100% of the Moon is Illuminated
Nov 28
Full
Dec 6
Last Quarter
Dec 13
New
Dec 19
First Quarter
Dec 28
Full

Hourly Weather History & Observations

Time (MST) Temp. Windchill Dew Point Humidity Pressure Visibility Wind Dir Wind Speed Gust Speed Precip Events Conditions
12:56 AM 33.1 °F 26.1 °F 5.0 °F 31% 30.14 in - NNW 8.1 mph - N/A   Unknown
1:56 AM 28.9 °F 18.6 °F 5.0 °F 36% 30.16 in - North 12.7 mph - N/A   Unknown
2:56 AM 27.0 °F 16.7 °F 5.0 °F 39% 30.17 in - North 11.5 mph - N/A   Unknown
3:56 AM 28.0 °F 18.1 °F 7.0 °F 41% 30.18 in - NW 11.5 mph - N/A   Unknown
4:56 AM 25.0 °F 13.6 °F 3.9 °F 41% 30.22 in - NNW 12.7 mph - N/A   Unknown
5:56 AM 24.1 °F 14.4 °F 3.0 °F 40% 30.25 in - NW 9.2 mph - N/A   Unknown
6:56 AM 24.1 °F 13.7 °F 1.9 °F 38% 30.27 in - NW 10.4 mph - N/A   Unknown
7:56 AM 30.9 °F 25.2 °F 3.9 °F 32% 30.27 in - NNW 5.8 mph - N/A   Unknown
8:56 AM 44.1 °F 40.1 °F 15.1 °F 31% 30.24 in - North 6.9 mph - N/A   Unknown
9:56 AM 51.1 °F - 19.0 °F 28% 30.20 in - Calm Calm - N/A   Unknown
10:56 AM 53.1 °F - 19.0 °F 26% 30.17 in - SW 3.5 mph - N/A   Unknown
11:56 AM 57.9 °F - 19.9 °F 23% 30.12 in - South 6.9 mph - N/A   Unknown
12:56 PM 60.1 °F - 18.0 °F 20% 30.08 in - South 5.8 mph - N/A   Unknown
1:56 PM 62.1 °F - 17.1 °F 18% 30.05 in - South 5.8 mph - N/A   Unknown
2:56 PM 60.1 °F - 19.9 °F 21% 30.05 in - South 8.1 mph - N/A   Unknown
3:56 PM 53.1 °F - 19.9 °F 27% 30.07 in - South 10.4 mph - N/A   Unknown
4:56 PM 45.0 °F 40.6 °F 19.9 °F 37% 30.11 in - SSW 8.1 mph - N/A   Unknown
5:56 PM 45.0 °F 40.1 °F 21.9 °F 40% 30.10 in - SSW 9.2 mph - N/A   Unknown
6:56 PM 39.0 °F 33.4 °F 21.0 °F 49% 30.11 in - SW 8.1 mph - N/A   Unknown
7:56 PM 36.0 °F 33.3 °F 19.9 °F 52% 30.07 in - SW 3.5 mph - N/A   Unknown
8:56 PM 37.0 °F 32.4 °F 19.0 °F 48% 30.02 in - West 5.8 mph - N/A   Unknown
9:56 PM 33.1 °F 27.7 °F 16.0 °F 50% 30.00 in - WNW 5.8 mph - N/A   Unknown
10:56 PM 34.0 °F 25.5 °F 12.9 °F 42% 29.99 in - NW 11.5 mph - N/A   Unknown
11:56 PM 37.9 °F 30.9 °F 8.1 °F 29% 29.96 in - NW 10.4 mph - N/A   Unknown